Regional Weather Roundup
Issued by NWS

Home | Current Version | Previous Version | Graphics & Text | Print | Product List | Glossary On
Versions: 1 2 3 4 5 6 7 8 9 10 11 12 13 14 15 16 17 18 19 20 21 22 23 24 25 26 27 28 29 30 31 32 33 34 35 36 37 38 39 40 41 42 43 44 45 46 47 48 49 50
277
ASUS43 KTOP 280959
RWRKS

WEATHER ROUNDUP FOR KANSAS
NATIONAL WEATHER SERVICE GOODLAND KS
500 AM CDT WED SEP 28 2016

NOTE:  "FAIR" INDICATES FEW OR NO CLOUDS BELOW 12,000 FEET WITH NO
SIGNIFICANT WEATHER AND/OR OBSTRUCTIONS TO VISIBILITY.

KSZ001>006-013>018-027>032-041>047-281100-
NORTHWEST KANSAS

CITY           SKY/WX    TMP DP  RH WIND       PRES   REMARKS
GOODLAND       CLEAR     46  37  71 NW8       30.12R
HAYS           CLEAR     54  39  58 NW9       30.02R
HILL CITY      CLEAR     51  45  79 W6        30.06R
RUSSELL        CLEAR     55  49  80 N9        29.98R
$$

KSZ061>065-074>080-084>089-281100-
SOUTHWEST KANSAS

CITY           SKY/WX    TMP DP  RH WIND       PRES   REMARKS
DODGE CITY     CLEAR     56  41  57 NW13      30.03R
ELKHART          N/A     61  36  39 W6          N/A
GARDEN CITY    CLEAR     52  40  63 N10       30.05R
GREAT BEND     CLEAR     54  41  62 W7        30.00R
LIBERAL        CLEAR     52  36  54 CALM      30.07R
$$

KSZ066>073-081>083-090>101-281100-
SOUTHEAST KANSAS

CITY           SKY/WX    TMP DP  RH WIND       PRES   REMARKS
CHANUTE        CLEAR     61  52  72 SW6       29.89S
COFFEYVILLE    CLEAR     57  51  80 S3        29.91S
HUTCHINSON     CLEAR     56  52  86 NW8       29.94R
MEDICINE LODGE   N/A     55  48  77 N7        29.97R
NEWTON         CLEAR     58  54  86 NW7       29.95R
PARSONS        CLEAR     51  50  96 CALM      29.92R
WICHITA INTL   CLEAR     60  53  77 W7        29.92R
WICHITA JABRA  LGT RAIN  61  55  81 W9        29.93R
WINFIELD       CLEAR     57  52  83 SW7       29.94S
$$

KSZ007>012-019>026-033>040-048>060-102>105-281100-
NORTHEAST KANSAS

CITY           SKY/WX    TMP DP  RH WIND       PRES   REMARKS
CONCORDIA      CLEAR     52  49  89 CALM      29.98R
EMPORIA        CLEAR     59  55  87 NW6       29.91R
LAWRENCE       CLEAR     55  54  96 W8        29.89R
MANHATTAN      CLEAR     53  50  89 CALM      29.93R
OLATHE IND     CLEAR     58  55  90 NW8       29.89R
OLATHE EXE     CLEAR     61  54  77 NW6       29.88R
SALINA         CLEAR     57  52  83 NW9       29.95R
TOPEKA BILLARD CLEAR     58  53  84 NW3       29.90R
TOPEKA FORBES  CLEAR     57  52  83 NW8       29.90R
$$




USA.gov is the U.S. government's official web portal to all federal, state and local government web resources and services.